�������l�o���
Date,Time,MP-1(��Sv/h),MP-2(��Sv/h),MP-3(��Sv/h),MP-4(��Sv/h),MP-5(��Sv/h),MP-6(��Sv/h),MP-7(��Sv/h),MP-8(��Sv/h),����,����(m/s),���J
2019/05/25,00:00,0.763,1.107,0.756,1.378,1.011,0.439,0.763,0.722,���쐼,5.9,��
2019/05/25,00:10,0.763,1.109,0.758,1.381,1.011,0.438,0.761,0.720,���쐼,5.9,��
2019/05/25,00:20,0.762,1.109,0.755,1.380,1.010,0.440,0.763,0.721,���쐼,5.6,��
2019/05/25,00:30,0.762,1.109,0.753,1.381,1.011,0.440,0.762,0.720,���쐼,4.9,��
2019/05/25,00:40,0.765,1.107,0.755,1.384,1.010,0.439,0.764,0.721,��,4.8,��
2019/05/25,00:50,0.761,1.108,0.756,1.382,1.009,0.440,0.763,0.721,��,5.4,��
2019/05/25,01:00,0.762,1.106,0.756,1.380,1.010,0.440,0.762,0.721,��,5.0,��
2019/05/25,01:10,0.762,1.107,0.756,1.382,1.009,0.437,0.764,0.722,��,4.4,��
2019/05/25,01:20,0.762,1.107,0.756,1.381,1.010,0.440,0.763,0.722,��,4.3,��
2019/05/25,01:30,0.763,1.107,0.757,1.381,1.009,0.438,0.763,0.721,��,3.9,��
2019/05/25,01:40,0.761,1.109,0.755,1.380,1.010,0.440,0.762,0.721,��,3.6,��
2019/05/25,01:50,0.763,1.108,0.755,1.384,1.010,0.439,0.762,0.722,���k��,2.3,��
2019/05/25,02:00,0.763,1.107,0.756,1.382,1.010,0.440,0.761,0.722,���k��,2.6,��
2019/05/25,02:10,0.762,1.107,0.758,1.380,1.009,0.438,0.761,0.722,��,4.1,��
2019/05/25,02:20,0.762,1.108,0.757,1.380,1.010,0.439,0.762,0.720,���k��,4.2,��
2019/05/25,02:30,0.759,1.107,0.757,1.378,1.009,0.439,0.763,0.721,��,5.0,��
2019/05/25,02:40,0.761,1.107,0.755,1.382,1.010,0.439,0.765,0.722,��,3.9,��
2019/05/25,02:50,0.761,1.106,0.754,1.381,1.008,0.439,0.764,0.722,��,3.2,��
2019/05/25,03:00,0.764,1.108,0.757,1.381,1.009,0.439,0.764,0.722,���쐼,2.5,��
2019/05/25,03:10,0.762,1.108,0.756,1.378,1.010,0.437,0.762,0.722,���쐼,3.1,��
2019/05/25,03:20,0.762,1.107,0.755,1.380,1.009,0.440,0.762,0.723,���쐼,3.2,��
2019/05/25,03:30,0.763,1.108,0.754,1.380,1.010,0.440,0.763,0.722,���쐼,2.6,��
2019/05/25,03:40,0.762,1.107,0.755,1.381,1.010,0.439,0.762,0.721,���쐼,1.2,��
2019/05/25,03:50,0.761,1.106,0.756,1.383,1.011,0.439,0.762,0.721,���쐼,1.5,��
2019/05/25,04:00,0.761,1.109,0.755,1.381,1.009,0.440,0.761,0.720,��,1.2,��
2019/05/25,04:10,0.760,1.107,0.756,1.383,1.012,0.437,0.763,0.719,-,CALM,��
2019/05/25,04:20,0.761,1.107,0.755,1.380,1.010,0.440,0.763,0.722,�k��,0.6,��
2019/05/25,04:30,0.761,1.106,0.755,1.380,1.009,0.439,0.762,0.719,��,1.4,��
2019/05/25,04:40,0.761,1.108,0.757,1.381,1.010,0.436,0.762,0.722,���k��,1.5,��
2019/05/25,04:50,0.760,1.107,0.756,1.381,1.008,0.439,0.762,0.722,�k��,2.3,��
2019/05/25,05:00,0.763,1.110,0.756,1.381,1.011,0.438,0.762,0.720,�k��,3.6,��
2019/05/25,05:10,0.761,1.107,0.756,1.383,1.010,0.439,0.762,0.721,�k�k��,4.9,��
2019/05/25,05:20,0.761,1.107,0.757,1.382,1.010,0.437,0.762,0.721,�k�k��,5.2,��
2019/05/25,05:30,0.762,1.109,0.756,1.382,1.009,0.440,0.763,0.719,�k,4.1,��
2019/05/25,05:40,0.762,1.107,0.757,1.382,1.010,0.437,0.762,0.721,�k,3.5,��
2019/05/25,05:50,0.762,1.108,0.756,1.381,1.008,0.438,0.763,0.722,�k,2.8,��
2019/05/25,06:00,0.761,1.109,0.758,1.382,1.011,0.438,0.763,0.721,�k,3.4,��
2019/05/25,06:10,0.763,1.107,0.756,1.383,1.012,0.439,0.765,0.724,�k,4.3,��
2019/05/25,06:20,0.762,1.108,0.757,1.380,1.012,0.439,0.763,0.721,�k,3.9,��
2019/05/25,06:30,0.762,1.106,0.754,1.384,1.012,0.440,0.767,0.721,�k�k��,3.3,��
2019/05/25,06:40,0.761,1.104,0.755,1.383,1.010,0.439,0.765,0.723,�k�k��,3.3,��
2019/05/25,06:50,0.761,1.105,0.756,1.382,1.009,0.438,0.764,0.722,�k�k��,3.3,��
2019/05/25,07:00,0.762,1.106,0.755,1.383,1.010,0.437,0.764,0.723,�k�k��,3.1,��
2019/05/25,07:10,0.761,1.106,0.756,1.381,1.011,0.437,0.764,0.721,�k�k��,2.2,��
2019/05/25,07:20,0.761,1.104,0.754,1.381,1.010,0.438,0.764,0.723,�k�k��,1.5,��
2019/05/25,07:30,0.761,1.105,0.755,1.381,1.012,0.437,0.763,0.723,�k�k��,1.9,��
2019/05/25,07:40,0.763,1.104,0.755,1.379,1.009,0.438,0.761,0.723,�k�k��,1.7,��
2019/05/25,07:50,0.762,1.109,0.756,1.382,1.012,0.438,0.764,0.722,���k��,1.5,��
2019/05/25,08:00,0.763,1.103,0.755,1.382,1.014,0.436,0.763,0.721,�k��,1.2,��
2019/05/25,08:10,0.761,1.105,0.754,1.384,1.013,0.436,0.762,0.720,���쓌,1.7,��
2019/05/25,08:20,0.762,1.105,0.757,1.384,1.010,0.437,0.763,0.721,��,1.1,��
2019/05/25,08:30,0.764,1.104,0.754,1.380,1.013,0.437,0.762,0.721,���쓌,0.6,��
2019/05/25,08:40,0.762,1.106,0.757,1.385,1.012,0.437,0.763,0.721,��,1.4,��
2019/05/25,08:50,0.763,1.106,0.755,1.384,1.014,0.439,0.763,0.721,��,1.7,��
2019/05/25,09:00,0.760,1.107,0.758,1.383,1.013,0.437,0.765,0.720,���k��,2.5,��
2019/05/25,09:10,0.761,1.109,0.757,1.381,1.012,0.438,0.762,0.721,��,2.9,��
2019/05/25,09:20,0.763,1.109,0.755,1.381,1.012,0.437,0.762,0.721,��,3.6,��
2019/05/25,09:30,0.762,1.110,0.756,1.385,1.012,0.437,0.762,0.720,��,3.7,��
2019/05/25,09:40,0.762,1.107,0.754,1.383,1.014,0.438,0.762,0.720,��,2.9,��
2019/05/25,09:50,0.764,1.107,0.754,1.387,1.011,0.437,0.762,0.722,��,2.9,��
2019/05/25,10:00,0.764,1.110,0.754,1.386,1.014,0.437,0.763,0.722,��,3.0,��
2019/05/25,10:10,0.763,1.108,0.755,1.384,1.016,0.438,0.762,0.720,��,3.0,��
2019/05/25,10:20,0.762,1.110,0.754,1.382,1.015,0.438,0.763,0.722,���쓌,3.3,��
2019/05/25,10:30,0.763,1.111,0.754,1.384,1.013,0.437,0.763,0.721,��,2.8,��
2019/05/25,10:40,0.762,1.111,0.756,1.386,1.013,0.437,0.762,0.721,���쓌,3.3,��
2019/05/25,10:50,0.765,1.110,0.755,1.384,1.015,0.438,0.763,0.723,�쓌,3.5,��
2019/05/25,11:00,0.767,1.110,0.756,1.386,1.016,0.437,0.762,0.721,���쓌,3.5,��
2019/05/25,11:10,0.764,1.111,0.757,1.385,1.015,0.437,0.764,0.721,���쓌,3.5,��
2019/05/25,11:20,0.765,1.109,0.758,1.383,1.017,0.436,0.764,0.723,�쓌,4.1,��
2019/05/25,11:30,0.764,1.112,0.757,1.381,1.015,0.438,0.763,0.721,�쓌,4.1,��
2019/05/25,11:40,0.764,1.114,0.758,1.381,1.019,0.439,0.763,0.720,��쓌,4.2,��
2019/05/25,11:50,0.765,1.111,0.758,1.382,1.019,0.437,0.763,0.722,��쓌,5.4,��
2019/05/25,12:00,0.765,1.114,0.759,1.382,1.019,0.439,0.764,0.721,��쓌,5.9,��
2019/05/25,12:10,0.767,1.116,0.758,1.384,1.020,0.439,0.765,0.723,��쓌,7.2,��
2019/05/25,12:20,0.766,1.115,0.760,1.385,1.020,0.438,0.763,0.722,��쓌,6.7,��
2019/05/25,12:30,0.764,1.115,0.759,1.385,1.021,0.440,0.763,0.722,��쓌,7.2,��
2019/05/25,12:40,0.766,1.119,0.759,1.384,1.020,0.439,0.763,0.721,��쓌,6.8,��
2019/05/25,12:50,0.766,1.116,0.758,1.385,1.018,0.440,0.763,0.723,��쓌,8.8,��
2019/05/25,13:00,0.766,1.117,0.757,1.386,1.019,0.438,0.764,0.722,��쓌,9.0,��
2019/05/25,13:10,0.766,1.117,0.759,1.385,1.021,0.438,0.765,0.724,��쓌,9.2,��
2019/05/25,13:20,0.767,1.117,0.759,1.387,1.021,0.438,0.765,0.721,��쓌,8.5,��
2019/05/25,13:30,0.768,1.118,0.760,1.388,1.022,0.438,0.763,0.723,��쓌,9.1,��
2019/05/25,13:40,0.769,1.117,0.759,1.384,1.020,0.439,0.765,0.722,��쓌,8.3,��
2019/05/25,13:50,0.768,1.117,0.763,1.389,1.023,0.441,0.765,0.722,��쓌,7.8,��
2019/05/25,14:00,0.768,1.116,0.761,1.388,1.020,0.439,0.765,0.720,��,8.5,��
2019/05/25,14:10,0.767,1.116,0.759,1.388,1.023,0.440,0.764,0.722,��쓌,9.5,��
2019/05/25,14:20,0.767,1.116,0.760,1.386,1.023,0.441,0.764,0.723,��쓌,10.0,��
2019/05/25,14:30,0.769,1.117,0.762,1.386,1.023,0.441,0.765,0.722,��쓌,9.8,��
2019/05/25,14:40,0.769,1.119,0.762,1.388,1.023,0.442,0.765,0.722,��,9.5,��
2019/05/25,14:50,0.767,1.114,0.761,1.387,1.026,0.440,0.766,0.721,��쓌,9.9,��
2019/05/25,15:00,0.769,1.117,0.761,1.390,1.024,0.442,0.763,0.722,��쓌,10.8,��
2019/05/25,15:10,0.769,1.119,0.761,1.389,1.024,0.441,0.766,0.723,��쓌,10.8,��
2019/05/25,15:20,0.767,1.119,0.762,1.389,1.024,0.442,0.765,0.721,��쓌,13.3,��
2019/05/25,15:30,0.768,1.118,0.761,1.389,1.024,0.442,0.765,0.723,��쓌,12.1,��
2019/05/25,15:40,0.768,1.119,0.760,1.390,1.025,0.440,0.765,0.722,��쓌,10.7,��
2019/05/25,15:50,0.769,1.118,0.761,1.391,1.023,0.441,0.765,0.722,��쓌,12.0,��
2019/05/25,16:00,0.769,1.121,0.761,1.392,1.024,0.440,0.765,0.722,��,9.9,��
2019/05/25,16:10,0.767,1.120,0.761,1.386,1.025,0.443,0.764,0.720,��,10.0,��
2019/05/25,16:20,0.766,1.117,0.761,1.391,1.028,0.441,0.763,0.723,��,11.7,��
2019/05/25,16:30,0.771,1.120,0.762,1.391,1.025,0.441,0.765,0.722,��,11.0,��
2019/05/25,16:40,0.768,1.121,0.761,1.388,1.028,0.440,0.764,0.722,��,12.4,��
2019/05/25,16:50,0.767,1.122,0.761,1.390,1.025,0.441,0.765,0.722,��,11.9,��
2019/05/25,17:00,0.767,1.120,0.761,1.390,1.025,0.442,0.766,0.722,��,11.0,��
2019/05/25,17:10,0.769,1.121,0.761,1.392,1.024,0.442,0.764,0.722,��,10.5,��
2019/05/25,17:20,0.768,1.121,0.762,1.390,1.026,0.442,0.765,0.723,��,10.5,��
2019/05/25,17:30,0.769,1.122,0.761,1.391,1.026,0.443,0.764,0.722,��,10.5,��
2019/05/25,17:40,0.768,1.121,0.764,1.391,1.024,0.443,0.765,0.722,��,9.5,��
2019/05/25,17:50,0.768,1.123,0.764,1.392,1.026,0.443,0.765,0.723,��,9.4,��
2019/05/25,18:00,0.767,1.122,0.763,1.390,1.025,0.443,0.765,0.725,��,9.1,��
2019/05/25,18:10,0.767,1.123,0.765,1.392,1.026,0.441,0.764,0.725,��,8.6,��
2019/05/25,18:20,0.768,1.122,0.764,1.389,1.025,0.443,0.767,0.725,��,8.5,��
2019/05/25,18:30,0.767,1.124,0.765,1.392,1.026,0.442,0.764,0.725,��,8.1,��
2019/05/25,18:40,0.770,1.124,0.764,1.393,1.027,0.442,0.764,0.725,��,7.8,��
2019/05/25,18:50,0.770,1.124,0.765,1.392,1.028,0.442,0.765,0.728,��,6.7,��
2019/05/25,19:00,0.768,1.124,0.764,1.393,1.028,0.442,0.767,0.724,��,6.1,��
2019/05/25,19:10,0.768,1.123,0.765,1.391,1.028,0.442,0.766,0.724,��쐼,5.6,��
2019/05/25,19:20,0.770,1.124,0.765,1.393,1.028,0.442,0.767,0.725,��쐼,4.8,��
2019/05/25,19:30,0.770,1.124,0.765,1.394,1.028,0.443,0.766,0.725,��쐼,4.7,��
2019/05/25,19:40,0.771,1.122,0.762,1.393,1.027,0.444,0.766,0.726,��쐼,5.1,��
2019/05/25,19:50,0.772,1.124,0.765,1.392,1.029,0.445,0.766,0.723,��,6.1,��
2019/05/25,20:00,0.772,1.123,0.764,1.395,1.029,0.443,0.769,0.726,��,5.9,��
2019/05/25,20:10,0.771,1.121,0.766,1.393,1.028,0.443,0.768,0.725,��,5.4,��
2019/05/25,20:20,0.771,1.124,0.762,1.396,1.029,0.443,0.767,0.724,��쐼,4.3,��
2019/05/25,20:30,0.770,1.123,0.763,1.395,1.027,0.442,0.767,0.725,��,3.8,��
2019/05/25,20:40,0.772,1.125,0.765,1.395,1.029,0.445,0.766,0.723,��,4.0,��
2019/05/25,20:50,0.771,1.123,0.764,1.396,1.030,0.444,0.766,0.726,��쐼,3.7,��
2019/05/25,21:00,0.772,1.123,0.763,1.397,1.030,0.443,0.767,0.724,��쐼,3.1,��
2019/05/25,21:10,0.771,1.125,0.763,1.396,1.028,0.444,0.767,0.724,��쐼,2.8,��
2019/05/25,21:20,0.770,1.123,0.765,1.394,1.028,0.443,0.767,0.727,��쐼,2.6,��
2019/05/25,21:30,0.771,1.122,0.765,1.396,1.029,0.443,0.766,0.726,��쐼,2.8,��
2019/05/25,21:40,0.771,1.124,0.766,1.396,1.026,0.443,0.766,0.725,��쐼,3.6,��
2019/05/25,21:50,0.770,1.123,0.763,1.395,1.027,0.444,0.767,0.724,��쐼,3.8,��
2019/05/25,22:00,0.768,1.123,0.765,1.395,1.027,0.442,0.765,0.724,��,3.5,��
2019/05/25,22:10,0.771,1.124,0.764,1.396,1.024,0.442,0.763,0.723,��,2.3,��
2019/05/25,22:20,0.769,1.122,0.765,1.397,1.027,0.443,0.766,0.724,��,1.2,��
2019/05/25,22:30,0.771,1.121,0.764,1.396,1.028,0.443,0.767,0.724,�k��,1.4,��
2019/05/25,22:40,0.771,1.123,0.765,1.395,1.027,0.443,0.765,0.724,�k��,2.3,��
2019/05/25,22:50,0.772,1.122,0.764,1.397,1.029,0.444,0.767,0.726,�k��,2.5,��
2019/05/25,23:00,0.773,1.123,0.766,1.398,1.029,0.443,0.765,0.727,�k��,2.6,��
2019/05/25,23:10,0.770,1.122,0.767,1.397,1.028,0.442,0.768,0.725,�k��,3.0,��
2019/05/25,23:20,0.771,1.122,0.765,1.397,1.028,0.441,0.765,0.725,�k��,3.3,��
2019/05/25,23:30,0.769,1.121,0.764,1.399,1.026,0.443,0.767,0.724,�k��,3.3,��
2019/05/25,23:40,0.769,1.122,0.765,1.397,1.027,0.444,0.766,0.724,�k��,3.7,��
2019/05/25,23:50,0.769,1.119,0.766,1.397,1.027,0.443,0.766,0.725,�k��,4.2,��
